TimeEST,TemperatureF,Dew PointF,Humidity,Sea Level PressureIn,VisibilityMPH,Wind Direction,Wind SpeedMPH,Gust SpeedMPH,PrecipitationIn,Events,Conditions,WindDirDegrees,DateUTC
12:53 AM,32.0,28.0,85,30.14,8.0,SW,6.9,-,N/A,,Overcast,230,2013-01-17 05:53:00
1:53 AM,32.0,27.0,82,30.15,9.0,SSW,3.5,-,N/A,,Overcast,210,2013-01-17 06:53:00
2:53 AM,30.9,27.0,85,30.17,9.0,SW,3.5,-,N/A,,Scattered Clouds,220,2013-01-17 07:53:00
3:53 AM,30.9,26.1,82,30.17,9.0,Calm,Calm,-,N/A,,Clear,0,2013-01-17 08:53:00
4:53 AM,30.9,26.1,82,30.17,9.0,Calm,Calm,-,N/A,,Clear,0,2013-01-17 09:53:00
5:53 AM,30.0,27.0,88,30.18,8.0,Calm,Calm,-,N/A,,Clear,0,2013-01-17 10:53:00
6:53 AM,30.0,27.0,88,30.18,8.0,Calm,Calm,-,N/A,,Clear,0,2013-01-17 11:53:00
7:53 AM,28.9,27.0,92,30.21,8.0,Calm,Calm,-,N/A,,Clear,0,2013-01-17 12:53:00
8:53 AM,30.0,28.0,92,30.24,6.0,Calm,Calm,-,N/A,,Clear,0,2013-01-17 13:53:00
9:53 AM,30.9,28.0,89,30.25,7.0,NNE,3.5,-,N/A,,Clear,30,2013-01-17 14:53:00
10:53 AM,34.0,28.0,79,30.25,7.0,Calm,Calm,-,N/A,,Clear,0,2013-01-17 15:53:00
11:53 AM,36.0,28.0,73,30.22,8.0,Calm,Calm,-,N/A,,Clear,0,2013-01-17 16:53:00
12:53 PM,39.0,28.0,65,30.16,10.0,North,10.4,-,N/A,,Clear,10,2013-01-17 17:53:00
1:53 PM,42.1,28.9,60,30.15,10.0,NE,12.7,19.6,N/A,,Clear,40,2013-01-17 18:53:00
2:53 PM,44.1,28.9,55,30.16,10.0,North,5.8,-,N/A,,Clear,10,2013-01-17 19:53:00
3:27 PM,44.6,26.6,49,30.16,10.0,North,12.7,19.6,N/A,,Clear,360,2013-01-17 20:27:00
3:53 PM,42.1,25.0,51,30.16,10.0,North,10.4,-,N/A,,Clear,350,2013-01-17 20:53:00
4:53 PM,42.1,25.0,51,30.21,10.0,North,10.4,-,N/A,,Clear,350,2013-01-17 21:53:00
5:53 PM,39.0,25.0,57,30.27,10.0,North,6.9,-,N/A,,Clear,360,2013-01-17 22:53:00
6:53 PM,37.0,25.0,62,30.28,10.0,North,6.9,-,N/A,,Clear,350,2013-01-17 23:53:00
7:53 PM,36.0,24.1,62,30.32,10.0,NNW,8.1,-,N/A,,Clear,340,2013-01-18 00:53:00
8:53 PM,35.1,23.0,61,30.34,10.0,NW,4.6,-,N/A,,Partly Cloudy,320,2013-01-18 01:53:00
9:53 PM,33.1,24.1,70,30.38,10.0,NNW,9.2,-,N/A,,Clear,330,2013-01-18 02:53:00
10:53 PM,30.9,21.9,69,30.40,10.0,NNW,6.9,-,N/A,,Clear,340,2013-01-18 03:53:00
11:53 PM,28.9,19.0,67,30.43,10.0,NNW,8.1,-,N/A,,Clear,340,2013-01-18 04:53:00